| time (UTC) | temp F | wind direction | speed MPH | gust MPH | rain 1hr in | rain 24hr in | rain mn in | humidity % | barometer mb |
| 20260506223706 | 50 | 222 | 2.0 | 6.0 | 0.01 | 0.17 | 0.01 | 91 | 1010.1 |
| 20260506223205 | 50 | 194 | 3.0 | 7.0 | 0.01 | 0.17 | 0.01 | 91 | 1010.1 |
| 20260506222704 | 51 | 192 | 3.0 | 7.0 | 0.00 | 0.17 | 0.00 | 91 | 1010.0 |
| 20260506222204 | 51 | 236 | 3.0 | 7.0 | 0.00 | 0.17 | 0.00 | 91 | 1010.1 |
| 20260506221705 | 51 | 207 | 3.0 | 7.0 | 0.00 | 0.17 | 0.00 | 91 | 1010.0 |
| 20260506221204 | 51 | 224 | 3.0 | 5.0 | 0.00 | 0.17 | 0.00 | 91 | 1009.9 |
| 20260506220205 | 51 | 190 | 2.0 | 5.0 | 0.00 | 0.17 | 0.17 | 92 | 1009.9 |
| 20260506215704 | 51 | 205 | 1.0 | 5.0 | 0.00 | 0.17 | 0.17 | 92 | 1009.8 |
| 20260506215204 | 51 | 198 | 2.0 | 4.0 | 0.01 | 0.17 | 0.17 | 92 | 1009.7 |
| 20260506214704 | 51 | 197 | 1.0 | 4.0 | 0.01 | 0.17 | 0.17 | 92 | 1009.7 |
| 20260506214205 | 51 | 200 | 1.0 | 4.0 | 0.01 | 0.17 | 0.17 | 92 | 1009.7 |
| 20260506213704 | 51 | 201 | 1.0 | 5.0 | 0.02 | 0.17 | 0.17 | 92 | 1009.6 |
| 20260506213204 | 51 | 201 | 2.0 | 5.0 | 0.02 | 0.17 | 0.17 | 92 | 1009.6 |
| 20260506212705 | 51 | 206 | 2.0 | 5.0 | 0.02 | 0.17 | 0.17 | 92 | 1009.6 |
| 20260506212205 | 51 | 205 | 2.0 | 5.0 | 0.02 | 0.17 | 0.17 | 92 | 1009.4 |
| 20260506211704 | 51 | 200 | 1.0 | 5.0 | 0.02 | 0.17 | 0.17 | 92 | 1009.4 |
| 20260506210705 | 51 | 211 | 2.0 | 6.0 | 0.03 | 0.17 | 0.17 | 92 | 1009.3 |
| 20260506205705 | 51 | 184 | 2.0 | 5.0 | 0.03 | 0.16 | 0.16 | 92 | 1009.3 |
| 20260506205205 | 51 | 209 | 2.0 | 6.0 | 0.04 | 0.16 | 0.16 | 92 | 1009.3 |
| 20260506204705 | 51 | 197 | 2.0 | 6.0 | 0.05 | 0.16 | 0.16 | 92 | 1009.3 |
| 20260506204205 | 51 | 215 | 2.0 | 5.0 | 0.05 | 0.15 | 0.15 | 92 | 1009.3 |
| 20260506203704 | 51 | 217 | 1.0 | 5.0 | 0.06 | 0.15 | 0.15 | 92 | 1009.2 |
| 20260506203204 | 51 | 182 | 1.0 | 5.0 | 0.06 | 0.15 | 0.15 | 92 | 1009.3 |
| 20260506202705 | 51 | 193 | 1.0 | 4.0 | 0.06 | 0.15 | 0.15 | 92 | 1009.2 |
| 20260506202205 | 51 | 196 | 1.0 | 6.0 | 0.06 | 0.15 | 0.15 | 92 | 1009.2 |
| 20260506201705 | 51 | 198 | 1.0 | 6.0 | 0.06 | 0.14 | 0.14 | 92 | 1009.2 |
| 20260506201205 | 51 | 200 | 2.0 | 6.0 | 0.06 | 0.13 | 0.13 | 92 | 1009.2 |
| 20260506200705 | 51 | 213 | 2.0 | 6.0 | 0.06 | 0.13 | 0.13 | 92 | 1009.2 |
| 20260506200205 | 52 | 202 | 2.0 | 5.0 | 0.06 | 0.13 | 0.13 | 92 | 1009.2 |
| 20260506195705 | 52 | 211 | 2.0 | 5.0 | 0.06 | 0.12 | 0.12 | 92 | 1009.1 |
| 20260506195205 | 52 | 184 | 2.0 | 5.0 | 0.06 | 0.12 | 0.12 | 92 | 1009.1 |
| 20260506193704 | 52 | 189 | 2.0 | 5.0 | 0.05 | 0.09 | 0.09 | 92 | 1008.8 |
| 20260506193205 | 52 | 208 | 2.0 | 5.0 | 0.05 | 0.09 | 0.09 | 92 | 1008.7 |
| 20260506192705 | 52 | 198 | 2.0 | 7.0 | 0.05 | 0.09 | 0.09 | 91 | 1008.6 |
| 20260506192205 | 52 | 194 | 2.0 | 7.0 | 0.05 | 0.09 | 0.09 | 91 | 1008.5 |
| 20260506191705 | 52 | 209 | 3.0 | 7.0 | 0.04 | 0.08 | 0.08 | 91 | 1008.4 |
| 20260506191205 | 53 | 182 | 3.0 | 7.0 | 0.03 | 0.07 | 0.07 | 91 | 1008.4 |
| 20260506190705 | 53 | 182 | 3.0 | 7.0 | 0.04 | 0.07 | 0.07 | 91 | 1008.3 |
| 20260506190205 | 53 | 184 | 2.0 | 6.0 | 0.03 | 0.06 | 0.06 | 91 | 1008.2 |
| 20260506185204 | 53 | 206 | 3.0 | 7.0 | 0.03 | 0.06 | 0.06 | 91 | 1008.0 |
| 20260506184704 | 53 | 186 | 2.0 | 6.0 | 0.03 | 0.06 | 0.06 | 90 | 1007.9 |
| 20260506183704 | 53 | 213 | 2.0 | 6.0 | 0.02 | 0.05 | 0.05 | 90 | 1007.8 |
| 20260506183204 | 54 | 192 | 2.0 | 6.0 | 0.02 | 0.04 | 0.04 | 90 | 1007.8 |
| 20260506182705 | 54 | 186 | 2.0 | 5.0 | 0.02 | 0.04 | 0.04 | 90 | 1007.7 |
| 20260506181705 | 54 | 188 | 1.0 | 5.0 | 0.02 | 0.04 | 0.04 | 89 | 1007.6 |
| 20260506181205 | 54 | 203 | 1.0 | 6.0 | 0.02 | 0.05 | 0.04 | 89 | 1007.6 |
| 20260506180705 | 54 | 184 | 2.0 | 6.0 | 0.01 | 0.04 | 0.03 | 89 | 1007.6 |
| 20260506180204 | 54 | 175 | 2.0 | 4.0 | 0.01 | 0.05 | 0.03 | 88 | 1007.6 |
| 20260506175204 | 55 | 208 | 1.0 | 4.0 | 0.00 | 0.06 | 0.02 | 88 | 1007.6 |
| 20260506174704 | 55 | 213 | 1.0 | 3.0 | 0.00 | 0.06 | 0.02 | 88 | 1007.5 |
| 20260506174205 | 55 | 219 | 1.0 | 4.0 | 0.00 | 0.06 | 0.02 | 87 | 1007.4 |
| 20260506173704 | 55 | 219 | 1.0 | 6.0 | 0.00 | 0.06 | 0.02 | 87 | 1007.3 |
| 20260506173204 | 55 | 219 | 2.0 | 6.0 | 0.00 | 0.06 | 0.02 | 87 | 1007.4 |
| 20260506172704 | 55 | 221 | 2.0 | 6.0 | 0.00 | 0.06 | 0.02 | 87 | 1007.4 |
| 20260506172205 | 55 | 224 | 2.0 | 5.0 | 0.00 | 0.06 | 0.02 | 87 | 1007.4 |
| 20260506171204 | 55 | 226 | 1.0 | 5.0 | 0.00 | 0.06 | 0.02 | 87 | 1007.3 |
| 20260506170705 | 55 | 226 | 2.0 | 5.0 | 0.00 | 0.06 | 0.02 | 87 | 1007.3 |
| 20260506165205 | 55 | 219 | 1.0 | 5.0 | 0.00 | 0.06 | 0.02 | 87 | 1007.2 |
| 20260506164204 | 55 | 225 | 2.0 | 7.0 | 0.00 | 0.06 | 0.02 | 86 | 1007.3 |
| 20260506163704 | 56 | 288 | 3.0 | 8.0 | 0.00 | 0.06 | 0.02 | 86 | 1007.3 |
| 20260506163204 | 55 | 275 | 4.0 | 8.0 | 0.00 | 0.06 | 0.02 | 85 | 1007.3 |
| 20260506162705 | 56 | 234 | 3.0 | 8.0 | 0.00 | 0.06 | 0.02 | 84 | 1007.3 |
| 20260506162220 | 56 | 213 | 3.0 | 8.0 | 0.00 | 0.06 | 0.02 | 84 | 1007.3 |
| 20260506161705 | 56 | 233 | 3.0 | 11.0 | 0.00 | 0.06 | 0.02 | 84 | 1007.3 |
| 20260506161207 | 56 | 237 | 4.0 | 11.0 | 0.00 | 0.06 | 0.02 | 84 | 1007.2 |
| 20260506160705 | 56 | 224 | 4.0 | 11.0 | 0.00 | 0.06 | 0.02 | 84 | 1007.2 |
| 20260506160232 | 56 | 245 | 3.0 | 7.0 | 0.00 | 0.06 | 0.02 | 85 | 1007.1 |
| 20260506155732 | 56 | 281 | 3.0 | 7.0 | 0.00 | 0.06 | 0.02 | 85 | 1007.1 |
| 20260506155204 | 56 | 218 | 3.0 | 7.0 | 0.00 | 0.06 | 0.02 | 85 | 1007.1 |
| 20260506154704 | 56 | 229 | 3.0 | 6.0 | 0.00 | 0.06 | 0.02 | 85 | 1007.1 |
| 20260506154205 | 56 | 227 | 3.0 | 6.0 | 0.00 | 0.06 | 0.02 | 85 | 1007.0 |
| 20260506153204 | 56 | 221 | 3.0 | 8.0 | 0.00 | 0.06 | 0.02 | 86 | 1007.0 |
| 20260506152704 | 56 | 243 | 4.0 | 8.0 | 0.00 | 0.06 | 0.02 | 85 | 1007.0 |
| 20260506152205 | 56 | 298 | 4.0 | 8.0 | 0.00 | 0.07 | 0.02 | 84 | 1006.9 |
| 20260506151704 | 56 | 281 | 4.0 | 11.0 | 0.00 | 0.07 | 0.02 | 85 | 1006.9 |
| 20260506151204 | 56 | 275 | 5.0 | 11.0 | 0.00 | 0.08 | 0.02 | 85 | 1006.9 |
| 20260506150705 | 56 | 221 | 5.0 | 11.0 | 0.00 | 0.08 | 0.02 | 84 | 1006.9 |
| 20260506150204 | 56 | 289 | 5.0 | 12.0 | 0.00 | 0.08 | 0.02 | 85 | 1006.8 |
| 20260506145704 | 56 | 285 | 5.0 | 13.0 | 0.00 | 0.08 | 0.02 | 85 | 1006.7 |
| 20260506145204 | 56 | 291 | 6.0 | 14.0 | 0.00 | 0.08 | 0.02 | 86 | 1006.6 |
| 20260506144707 | 56 | 330 | 7.0 | 16.0 | 0.01 | 0.08 | 0.02 | 86 | 1006.5 |
| 20260506144204 | 56 | 288 | 8.0 | 16.0 | 0.01 | 0.08 | 0.02 | 84 | 1006.5 |
| 20260506143704 | 56 | 326 | 9.0 | 16.0 | 0.01 | 0.08 | 0.02 | 84 | 1006.4 |
| 20260506143204 | 56 | 271 | 9.0 | 14.0 | 0.01 | 0.08 | 0.02 | 83 | 1006.5 |
| 20260506142704 | 56 | 290 | 8.0 | 23.0 | 0.01 | 0.09 | 0.02 | 82 | 1006.5 |
| 20260506142204 | 56 | 270 | 9.0 | 23.0 | 0.01 | 0.09 | 0.02 | 82 | 1006.6 |
| 20260506141705 | 57 | 284 | 11.0 | 23.0 | 0.01 | 0.09 | 0.02 | 81 | 1006.6 |
| 20260506141204 | 58 | 304 | 11.0 | 20.0 | 0.01 | 0.10 | 0.02 | 78 | 1006.5 |
| 20260506140705 | 61 | 281 | 7.0 | 19.0 | 0.01 | 0.11 | 0.02 | 77 | 1006.5 |
| 20260506140204 | 62 | 302 | 3.0 | 6.0 | 0.01 | 0.12 | 0.02 | 78 | 1006.1 |
| 20260506135705 | 62 | 267 | 2.0 | 6.0 | 0.01 | 0.13 | 0.02 | 77 | 1006.0 |
| 20260506134704 | 62 | 355 | 3.0 | 4.0 | 0.00 | 0.13 | 0.02 | 75 | 1005.9 |
| 20260506134205 | 62 | 355 | 2.0 | 5.0 | 0.00 | 0.15 | 0.02 | 75 | 1005.9 |
| 20260506133704 | 63 | 355 | 2.0 | 5.0 | 0.00 | 0.16 | 0.02 | 74 | 1005.8 |
| 20260506132704 | 63 | 50 | 2.0 | 3.0 | 0.00 | 0.17 | 0.02 | 73 | 1005.8 |
| 20260506132205 | 63 | 74 | 2.0 | 3.0 | 0.00 | 0.18 | 0.02 | 74 | 1005.6 |
| 20260506131705 | 63 | 74 | 2.0 | 3.0 | 0.01 | 0.19 | 0.02 | 75 | 1005.6 |
| 20260506130705 | 63 | 74 | 2.0 | 3.0 | 0.01 | 0.20 | 0.02 | 73 | 1005.4 |
| 20260506130205 | 63 | 74 | 1.0 | 3.0 | 0.01 | 0.20 | 0.02 | 73 | 1005.4 |
| 20260506125704 | 63 | 74 | 1.0 | 3.0 | 0.01 | 0.20 | 0.02 | 73 | 1005.4 |
| 20260506125205 | 62 | 74 | 1.0 | 4.0 | 0.01 | 0.20 | 0.02 | 74 | 1005.3 |
| 20260506124205 | 62 | 74 | 2.0 | 4.0 | 0.01 | 0.20 | 0.02 | 73 | 1005.4 |
| 20260506123704 | 62 | 74 | 2.0 | 5.0 | 0.01 | 0.20 | 0.02 | 72 | 1005.3 |
| 20260506123204 | 62 | 74 | 2.0 | 5.0 | 0.01 | 0.20 | 0.02 | 72 | 1005.3 |
| 20260506122704 | 62 | 76 | 2.0 | 5.0 | 0.01 | 0.20 | 0.02 | 74 | 1005.3 |
| 20260506122204 | 63 | 76 | 1.0 | 5.0 | 0.01 | 0.20 | 0.02 | 73 | 1005.5 |
| 20260506121704 | 64 | 99 | 2.0 | 7.0 | 0.00 | 0.20 | 0.01 | 71 | 1005.4 |
| 20260506121205 | 64 | 98 | 2.0 | 7.0 | 0.00 | 0.20 | 0.01 | 71 | 1005.5 |
| 20260506120705 | 64 | 100 | 2.0 | 7.0 | 0.00 | 0.20 | 0.01 | 68 | 1005.5 |
| 20260506120205 | 64 | 114 | 2.0 | 7.0 | 0.00 | 0.20 | 0.01 | 67 | 1005.5 |
| 20260506115704 | 64 | 136 | 1.0 | 6.0 | 0.00 | 0.20 | 0.01 | 68 | 1005.6 |
| 20260506115204 | 64 | 129 | 1.0 | 5.0 | 0.00 | 0.20 | 0.01 | 67 | 1005.6 |
| 20260506114704 | 64 | 106 | 2.0 | 6.0 | 0.00 | 0.20 | 0.01 | 67 | 1005.6 |
| 20260506114205 | 65 | 117 | 2.0 | 7.0 | 0.00 | 0.20 | 0.01 | 66 | 1005.6 |
| 20260506113705 | 65 | 79 | 3.0 | 7.0 | 0.00 | 0.20 | 0.01 | 64 | 1005.5 |
| 20260506112705 | 66 | 94 | 2.0 | 5.0 | 0.00 | 0.20 | 0.01 | 65 | 1005.6 |
| 20260506112205 | 66 | 101 | 2.0 | 5.0 | 0.00 | 0.20 | 0.01 | 64 | 1005.6 |
| 20260506111705 | 66 | 101 | 2.0 | 6.0 | 0.00 | 0.20 | 0.01 | 66 | 1005.8 |
| 20260506111205 | 66 | 101 | 2.0 | 6.0 | 0.00 | 0.20 | 0.01 | 64 | 1005.9 |
| 20260506110733 | 66 | 98 | 2.0 | 6.0 | 0.00 | 0.20 | 0.01 | 65 | 1005.9 |
| 20260506110204 | 65 | 99 | 2.0 | 3.0 | 0.00 | 0.20 | 0.01 | 66 | 1005.9 |
| 20260506105704 | 65 | 343 | 1.0 | 6.0 | 0.00 | 0.20 | 0.01 | 67 | 1006.0 |
| 20260506105204 | 65 | 342 | 2.0 | 6.0 | 0.00 | 0.20 | 0.01 | 67 | 1006.1 |
| 20260506104704 | 65 | 342 | 2.0 | 6.0 | 0.00 | 0.20 | 0.01 | 68 | 1006.1 |
| 20260506104205 | 65 | 342 | 1.0 | 4.0 | 0.00 | 0.20 | 0.01 | 65 | 1006.1 |
| 20260506103705 | 65 | 342 | 1.0 | 5.0 | 0.00 | 0.20 | 0.01 | 68 | 1006.2 |
| 20260506103204 | 65 | 313 | 1.0 | 5.0 | 0.00 | 0.20 | 0.01 | 67 | 1006.2 |
| 20260506102704 | 65 | 313 | 2.0 | 5.0 | 0.00 | 0.20 | 0.01 | 67 | 1006.3 |
| 20260506102204 | 65 | 300 | 1.0 | 5.0 | 0.00 | 0.20 | 0.01 | 68 | 1006.3 |
| 20260506101704 | 65 | 296 | 3.0 | 5.0 | 0.00 | 0.20 | 0.01 | 69 | 1006.3 |
| 20260506101204 | 65 | 296 | 2.0 | 5.0 | 0.00 | 0.20 | 0.01 | 66 | 1006.3 |
| 20260506100705 | 64 | 300 | 1.0 | 4.0 | 0.00 | 0.20 | 0.01 | 68 | 1006.3 |
| 20260506095705 | 63 | 302 | 2.0 | 4.0 | 0.00 | 0.20 | 0.01 | 67 | 1006.3 |
| 20260506095205 | 63 | 302 | 2.0 | 5.0 | 0.00 | 0.20 | 0.01 | 68 | 1006.4 |
| 20260506094704 | 63 | 302 | 2.0 | 5.0 | 0.00 | 0.20 | 0.01 | 68 | 1006.4 |
| 20260506094205 | 64 | 300 | 2.0 | 5.0 | 0.00 | 0.20 | 0.01 | 67 | 1006.4 |
| 20260506093705 | 64 | 297 | 1.0 | 6.0 | 0.00 | 0.20 | 0.01 | 68 | 1006.4 |
| 20260506093204 | 63 | 296 | 2.0 | 6.0 | 0.00 | 0.20 | 0.01 | 69 | 1006.5 |
| 20260506092704 | 63 | 296 | 2.0 | 6.0 | 0.00 | 0.20 | 0.01 | 67 | 1006.4 |
| 20260506092205 | 63 | 333 | 2.0 | 5.0 | 0.00 | 0.20 | 0.01 | 70 | 1006.5 |
| 20260506091704 | 63 | 336 | 2.0 | 5.0 | 0.00 | 0.20 | 0.01 | 65 | 1006.4 |
| 20260506091204 | 63 | 336 | 2.0 | 6.0 | 0.00 | 0.20 | 0.01 | 67 | 1006.4 |
| 20260506090705 | 63 | 337 | 2.0 | 6.0 | 0.00 | 0.20 | 0.01 | 67 | 1006.3 |
| 20260506090205 | 63 | 339 | 2.0 | 6.0 | 0.00 | 0.20 | 0.01 | 68 | 1006.3 |
| 20260506085704 | 64 | 339 | 2.0 | 5.0 | 0.00 | 0.20 | 0.01 | 70 | 1006.4 |
| 20260506085205 | 63 | 355 | 1.0 | 5.0 | 0.00 | 0.20 | 0.01 | 70 | 1006.5 |
| 20260506084705 | 63 | 276 | 2.0 | 5.0 | 0.00 | 0.20 | 0.01 | 72 | 1006.5 |
| 20260506084205 | 62 | 318 | 1.0 | 7.0 | 0.00 | 0.20 | 0.01 | 74 | 1006.5 |
| 20260506083704 | 62 | 315 | 2.0 | 7.0 | 0.00 | 0.20 | 0.01 | 72 | 1006.5 |
| 20260506083204 | 62 | 335 | 2.0 | 7.0 | 0.00 | 0.20 | 0.01 | 69 | 1006.5 |
| 20260506082704 | 63 | 281 | 2.0 | 6.0 | 0.00 | 0.20 | 0.01 | 74 | 1006.5 |
| 20260506082205 | 62 | 321 | 2.0 | 6.0 | 0.00 | 0.20 | 0.01 | 74 | 1006.6 |
| 20260506081705 | 63 | 306 | 1.0 | 4.0 | 0.00 | 0.20 | 0.01 | 71 | 1006.6 |
| 20260506081205 | 62 | 217 | 0.0 | 2.0 | 0.00 | 0.20 | 0.01 | 78 | 1006.5 |
| 20260506080705 | 62 | 209 | 1.0 | 3.0 | 0.00 | 0.20 | 0.01 | 75 | 1006.7 |
| 20260506073204 | 59 | 226 | 1.0 | 5.0 | 0.00 | 0.20 | 0.01 | 79 | 1006.8 |
| 20260506072704 | 59 | 209 | 1.0 | 4.0 | 0.00 | 0.20 | 0.01 | 81 | 1006.8 |
| 20260506072204 | 58 | 207 | 1.0 | 4.0 | 0.00 | 0.20 | 0.01 | 81 | 1006.7 |
| 20260506071704 | 58 | 208 | 0.0 | 3.0 | 0.00 | 0.20 | 0.01 | 81 | 1006.6 |
| 20260506071205 | 57 | 167 | 0.0 | 2.0 | 0.00 | 0.20 | 0.01 | 84 | 1006.6 |
| 20260506070705 | 57 | 166 | 0.0 | 2.0 | 0.00 | 0.20 | 0.01 | 83 | 1006.5 |
| 20260506070205 | 56 | 166 | 0.0 | 2.0 | 0.00 | 0.20 | 0.01 | 83 | 1006.6 |
| 20260506062205 | 53 | 166 | 1.0 | 5.0 | 0.00 | 0.20 | 0.01 | 88 | 1006.8 |
| 20260506061705 | 53 | 166 | 2.0 | 5.0 | 0.00 | 0.20 | 0.01 | 89 | 1006.8 |
| 20260506061205 | 52 | 166 | 1.0 | 5.0 | 0.00 | 0.20 | 0.01 | 89 | 1006.8 |
| 20260506060705 | 52 | 165 | 0.0 | 2.0 | 0.00 | 0.20 | 0.01 | 90 | 1006.8 |
| 20260506051204 | 49 | 173 | 0.0 | 0.0 | 0.00 | 0.20 | 0.01 | 92 | 1006.9 |
| 20260506050705 | 49 | 174 | 0.0 | 1.0 | 0.00 | 0.20 | 0.01 | 92 | 1006.9 |
| 20260506044204 | 49 | 174 | 1.0 | 2.0 | 0.00 | 0.20 | 0.01 | 91 | 1006.8 |
| 20260506043704 | 49 | 174 | 0.0 | 2.0 | 0.00 | 0.20 | 0.01 | 92 | 1006.8 |
| 20260506043204 | 49 | 173 | 0.0 | 2.0 | 0.00 | 0.20 | 0.01 | 92 | 1006.9 |
| 20260506042704 | 49 | 174 | 0.0 | 2.0 | 0.00 | 0.20 | 0.01 | 91 | 1006.8 |
| 20260506042204 | 49 | 174 | 0.0 | 2.0 | 0.00 | 0.20 | 0.01 | 91 | 1006.8 |
| 20260506041704 | 49 | 174 | 0.0 | 3.0 | 0.00 | 0.20 | 0.01 | 92 | 1006.9 |
| 20260506040704 | 49 | 174 | 1.0 | 5.0 | 0.00 | 0.20 | 0.01 | 92 | 1007.0 |
| 20260506040205 | 49 | 173 | 2.0 | 5.0 | 0.00 | 0.20 | 0.01 | 91 | 1007.0 |
| 20260506035705 | 49 | 174 | 2.0 | 4.0 | 0.00 | 0.20 | 0.01 | 91 | 1007.0 |
| 20260506035204 | 49 | 186 | 0.0 | 3.0 | 0.00 | 0.20 | 0.01 | 91 | 1007.1 |
| 20260506034705 | 49 | 186 | 0.0 | 3.0 | 0.00 | 0.20 | 0.01 | 91 | 1007.1 |
| 20260506034205 | 49 | 187 | 0.0 | 0.0 | 0.00 | 0.20 | 0.01 | 91 | 1007.1 |
| 20260506033705 | 49 | 186 | 0.0 | 0.0 | 0.00 | 0.20 | 0.01 | 91 | 1007.1 |
| 20260506032705 | 49 | 186 | 0.0 | 0.0 | 0.00 | 0.20 | 0.01 | 90 | 1007.1 |
| 20260506032205 | 50 | 186 | 0.0 | 0.0 | 0.00 | 0.20 | 0.01 | 90 | 1007.0 |
| 20260506031704 | 50 | 187 | 0.0 | 0.0 | 0.00 | 0.20 | 0.01 | 90 | 1007.0 |
| 20260506031205 | 50 | 186 | 0.0 | 0.0 | 0.00 | 0.20 | 0.01 | 90 | 1006.9 |
| 20260506030705 | 51 | 186 | 0.0 | 0.0 | 0.00 | 0.20 | 0.01 | 89 | 1006.9 |
| 20260506030205 | 51 | 186 | 0.0 | 0.0 | 0.00 | 0.20 | 0.01 | 89 | 1006.9 |
| 20260506025705 | 51 | 187 | 0.0 | 0.0 | 0.00 | 0.20 | 0.01 | 89 | 1006.9 |
| 20260506025204 | 51 | 186 | 0.0 | 3.0 | 0.00 | 0.20 | 0.01 | 89 | 1007.0 |
| 20260506024704 | 52 | 186 | 1.0 | 4.0 | 0.00 | 0.20 | 0.01 | 88 | 1007.1 |
| 20260506024204 | 52 | 186 | 1.0 | 5.0 | 0.00 | 0.20 | 0.01 | 88 | 1007.0 |
| 20260506023704 | 52 | 187 | 2.0 | 5.0 | 0.00 | 0.20 | 0.01 | 89 | 1007.2 |
| 20260506023204 | 52 | 187 | 2.0 | 5.0 | 0.00 | 0.20 | 0.01 | 89 | 1007.4 |
| 20260506022705 | 51 | 187 | 2.0 | 5.0 | 0.00 | 0.20 | 0.01 | 90 | 1007.6 |
| 20260506022204 | 51 | 187 | 2.0 | 5.0 | 0.00 | 0.20 | 0.01 | 90 | 1007.7 |
| 20260506021725 | 51 | 187 | 2.0 | 4.0 | 0.00 | 0.20 | 0.01 | 90 | 1007.6 |
| 20260506021204 | 51 | 186 | 2.0 | 4.0 | 0.00 | 0.20 | 0.01 | 90 | 1007.5 |
| 20260506020705 | 51 | 186 | 2.0 | 4.0 | 0.00 | 0.20 | 0.01 | 91 | 1007.5 |
| 20260506020205 | 51 | 186 | 2.0 | 4.0 | 0.00 | 0.20 | 0.01 | 91 | 1007.6 |
| 20260506015705 | 51 | 186 | 1.0 | 5.0 | 0.00 | 0.20 | 0.01 | 91 | 1007.6 |
| 20260506015204 | 51 | 186 | 2.0 | 5.0 | 0.00 | 0.20 | 0.01 | 91 | 1007.6 |
| 20260506014705 | 51 | 186 | 2.0 | 5.0 | 0.00 | 0.20 | 0.01 | 92 | 1007.6 |
| 20260506013705 | 50 | 201 | 1.0 | 3.0 | 0.00 | 0.20 | 0.01 | 92 | 1007.6 |
| 20260506013204 | 50 | 201 | 1.0 | 3.0 | 0.00 | 0.20 | 0.01 | 92 | 1007.4 |
| 20260506012705 | 50 | 201 | 1.0 | 3.0 | 0.00 | 0.20 | 0.01 | 91 | 1007.5 |
| 20260506012205 | 50 | 201 | 0.0 | 3.0 | 0.00 | 0.20 | 0.01 | 91 | 1007.5 |
| 20260506011705 | 50 | 202 | 0.0 | 0.0 | 0.00 | 0.20 | 0.01 | 91 | 1007.5 |
| 20260506011205 | 50 | 202 | 0.0 | 0.0 | 0.00 | 0.20 | 0.01 | 91 | 1007.6 |
| 20260506010705 | 51 | 201 | 0.0 | 0.0 | 0.00 | 0.20 | 0.01 | 91 | 1007.5 |
| 20260506010205 | 51 | 201 | 0.0 | 2.0 | 0.00 | 0.20 | 0.01 | 91 | 1007.5 |
| 20260506005705 | 51 | 201 | 0.0 | 2.0 | 0.00 | 0.20 | 0.01 | 90 | 1007.6 |
| 20260506005205 | 51 | 202 | 0.0 | 2.0 | 0.00 | 0.20 | 0.01 | 90 | 1007.5 |
| 20260506004705 | 51 | 201 | 0.0 | 0.0 | 0.00 | 0.20 | 0.01 | 90 | 1007.6 |
| 20260506004206 | 52 | 201 | 0.0 | 0.0 | 0.01 | 0.20 | 0.01 | 90 | 1007.8 |
| 20260506003705 | 52 | 201 | 0.0 | 2.0 | 0.01 | 0.20 | 0.01 | 90 | 1007.7 |
| 20260506003205 | 52 | 201 | 0.0 | 2.0 | 0.01 | 0.20 | 0.01 | 89 | 1007.7 |
| 20260506002705 | 53 | 201 | 0.0 | 4.0 | 0.01 | 0.20 | 0.01 | 89 | 1007.7 |
| 20260506001705 | 53 | 201 | 1.0 | 3.0 | 0.01 | 0.20 | 0.01 | 90 | 1007.9 |
| 20260506001205 | 53 | 200 | 1.0 | 3.0 | 0.01 | 0.20 | 0.01 | 90 | 1007.9 |
| 20260506000705 | 53 | 201 | 1.0 | 3.0 | 0.01 | 0.20 | 0.01 | 90 | 1008.0 |
| 20260506000205 | 53 | 201 | 1.0 | 3.0 | 0.01 | 0.20 | 0.01 | 90 | 1008.1 |
| 20260505235705 | 53 | 201 | 1.0 | 6.0 | 0.01 | 0.20 | 0.01 | 90 | 1008.1 |
| 20260505235204 | 53 | 201 | 1.0 | 6.0 | 0.01 | 0.20 | 0.01 | 90 | 1008.2 |
| 20260505234705 | 53 | 201 | 1.0 | 6.0 | 0.00 | 0.19 | 0.00 | 90 | 1008.3 |
| 20260505234205 | 53 | 213 | 1.0 | 4.0 | 0.00 | 0.19 | 0.00 | 90 | 1008.3 |
| 20260505233205 | 53 | 208 | 1.0 | 5.0 | 0.00 | 0.19 | 0.00 | 91 | 1008.3 |
| 20260505232722 | 53 | 211 | 2.0 | 5.0 | 0.00 | 0.19 | 0.00 | 90 | 1008.3 |
| 20260505232205 | 53 | 198 | 1.0 | 5.0 | 0.00 | 0.19 | 0.00 | 90 | 1008.3 |
| 20260505231705 | 53 | 213 | 1.0 | 5.0 | 0.00 | 0.19 | 0.00 | 90 | 1008.2 |
| 20260505231205 | 53 | 213 | 2.0 | 5.0 | 0.00 | 0.19 | 0.00 | 90 | 1008.3 |
| 20260505230723 | 53 | 213 | 2.0 | 5.0 | 0.00 | 0.19 | 0.00 | 90 | 1008.3 |
| 20260505230204 | 53 | 213 | 2.0 | 5.0 | 0.00 | 0.19 | 0.00 | 90 | 1008.2 |
| 20260505225204 | 54 | 213 | 1.0 | 4.0 | 0.00 | 0.19 | 0.00 | 90 | 1008.3 |